Location: El Hornillo
(40.2499°N, 5.1036°W)
Time: 09:49:33
(UTC+00:00)

Cosmos 1758 Rocket - Pass Details

Date: 05 August 2024
Orbit: 599 x 630 km, 82.5° (Epoch: 14 September)

Event Time Altitude Azimuth Distance (km) Brightness Sun altitude
Exits shadow 21:47:51 44° 208° (SSW) 842 4.0 -22.2°
Maximum altitude 21:49:07 71° 278° (W) 645 3.7 -22.4°
Drops below altitude 10° 21:53:28 10° 3° (N) 1,974 6.7 -22.9°
Sets 21:55:44 0° 6° (N) 2,889 7.6 -23.2°
